COOK73 RJOC-ZPPP

Flight info

Callsign COOK73
Flight time N/A
Altitude 38000
Route CARPS Y281 STOUT Y14 DGC Y28 ISAKY Y592 POTET A593 LAMEN/K0820F380 A593 AKARA/K0824S1160 A593 PK R343 ESBAG W581 SNQ W546 OREVO W164 VILID V65 IKUBA V106 GUGAM A581 XISLI XISLI2B
Aircraft C25C/M-SDE2E3FGHRWXY/LB1

Departure

Time N/A
Airport Izumo Enmusubi Airport (RJOC)

Arrival

Time 2026-05-05 18:00
Airport Kunming Changshui International Airport (ZPPP)
Time Latitude Longitude Altitude Speed Heading
2026-05-05 16:05 30.43386 113.85680 37619 ft 360 kts 260°
2026-05-05 16:06 30.42518 113.82935 37741 ft 363 kts 259°
2026-05-05 16:06 30.41636 113.80183 37856 ft 366 kts 259°
2026-05-05 16:06 30.40739 113.77407 37861 ft 371 kts 259°
2026-05-05 16:07 30.38917 113.71744 37869 ft 379 kts 259°
2026-05-05 16:07 30.37055 113.65980 37873 ft 385 kts 258°
2026-05-05 16:08 30.35178 113.60165 37881 ft 390 kts 258°
2026-05-05 16:08 30.33266 113.54257 37876 ft 393 kts 258°
2026-05-05 16:09 30.31339 113.48315 37878 ft 396 kts 258°
2026-05-05 16:09 30.29397 113.42338 37870 ft 398 kts 258°
2026-05-05 16:10 30.27446 113.36342 37878 ft 399 kts 258°
2026-05-05 16:10 30.25488 113.30333 37871 ft 399 kts 257°
2026-05-05 16:11 30.23523 113.24318 37873 ft 400 kts 257°
2026-05-05 16:11 30.19983 113.15533 37867 ft 413 kts 246°
2026-05-05 16:12 30.18430 113.12739 37871 ft 413 kts 246°
2026-05-05 16:13 30.10733 112.98758 37866 ft 412 kts 246°
2026-05-05 16:13 30.07652 112.93179 37861 ft 412 kts 246°
2026-05-05 16:14 30.01495 112.82061 37856 ft 411 kts 246°
2026-05-05 16:15 29.95359 112.71009 37855 ft 410 kts 246°
2026-05-05 16:16 29.89204 112.59955 37856 ft 409 kts 246°
2026-05-05 16:17 29.84596 112.51698 37856 ft 408 kts 246°
2026-05-05 16:18 29.79993 112.43467 37863 ft 407 kts 245°
2026-05-05 16:19 29.75397 112.35263 37861 ft 406 kts 245°
2026-05-05 16:19 29.70820 112.27113 37860 ft 405 kts 245°
2026-05-05 16:20 29.64696 112.16238 37856 ft 404 kts 245°
2026-05-05 16:22 29.57058 112.02711 37861 ft 403 kts 245°
2026-05-05 16:23 29.50957 111.91935 37856 ft 402 kts 245°
2026-05-05 16:23 29.46403 111.83913 37853 ft 401 kts 245°
2026-05-05 16:24 29.43358 111.78558 37858 ft 401 kts 245°
2026-05-05 16:25 29.38787 111.70531 37866 ft 400 kts 245°
2026-05-05 16:25 29.34645 111.62325 37857 ft 389 kts 254°
2026-05-05 16:26 29.30634 111.50848 37856 ft 387 kts 255°
2026-05-05 16:27 29.28635 111.45124 37854 ft 387 kts 255°
2026-05-05 16:27 29.26642 111.39445 37853 ft 386 kts 255°
2026-05-05 16:28 29.24642 111.33740 37863 ft 386 kts 255°
2026-05-05 16:28 29.22627 111.28011 37867 ft 385 kts 255°
2026-05-05 16:29 29.20638 111.22362 37802 ft 384 kts 255°
2026-05-05 16:29 29.18634 111.16675 37869 ft 387 kts 255°
2026-05-05 16:30 29.16604 111.10932 37864 ft 391 kts 255°
2026-05-05 16:30 29.14555 111.05141 37869 ft 393 kts 254°
2026-05-05 16:31 29.12844 111.00315 37866 ft 395 kts 254°
2026-05-05 16:31 29.10427 110.93502 37876 ft 396 kts 254°
2026-05-05 16:32 29.08361 110.87692 37873 ft 398 kts 254°
2026-05-05 16:32 29.06275 110.81835 37873 ft 398 kts 254°
2026-05-05 16:33 29.04185 110.75972 37874 ft 398 kts 253°
2026-05-05 16:33 29.02429 110.71057 37876 ft 398 kts 253°
2026-05-05 16:34 29.00390 110.65182 37882 ft 397 kts 254°
2026-05-05 16:34 28.98343 110.59361 37879 ft 397 kts 254°
2026-05-05 16:35 28.96287 110.53493 37878 ft 398 kts 254°
2026-05-05 16:35 28.94226 110.47627 37877 ft 398 kts 253°
2026-05-05 16:36 28.92164 110.41768 37884 ft 398 kts 253°
2026-05-05 16:36 28.90095 110.35907 37882 ft 397 kts 254°
2026-05-05 16:37 28.88029 110.30049 37882 ft 398 kts 253°
2026-05-05 16:37 28.85956 110.24195 37879 ft 398 kts 253°
2026-05-05 16:38 28.83882 110.18338 37880 ft 398 kts 253°
2026-05-05 16:38 28.81814 110.12516 37879 ft 398 kts 253°
2026-05-05 16:39 28.79736 110.06667 37874 ft 398 kts 253°
2026-05-05 16:39 28.77657 110.00827 37877 ft 397 kts 253°
2026-05-05 16:40 28.75573 109.94985 37866 ft 398 kts 253°
2026-05-05 16:40 28.73491 109.89152 37864 ft 397 kts 253°
2026-05-05 16:41 28.71409 109.83338 37873 ft 396 kts 253°
2026-05-05 16:41 28.69333 109.77538 37861 ft 395 kts 253°
2026-05-05 16:42 28.67252 109.71745 37860 ft 395 kts 253°
2026-05-05 16:42 28.65173 109.65959 37871 ft 395 kts 253°
2026-05-05 16:43 28.63133 109.60167 37877 ft 393 kts 253°
2026-05-05 16:43 28.61095 109.54384 37873 ft 394 kts 253°
2026-05-05 16:44 28.59056 109.48626 37868 ft 395 kts 253°
2026-05-05 16:44 28.56834 109.42862 37860 ft 397 kts 249°
2026-05-05 16:45 28.54426 109.37255 37852 ft 397 kts 249°
2026-05-05 16:45 28.51991 109.31611 37858 ft 398 kts 249°
2026-05-05 16:46 28.49552 109.25970 37861 ft 397 kts 249°
2026-05-05 16:46 28.47117 109.20336 37861 ft 397 kts 249°
2026-05-05 16:47 28.44678 109.14713 37861 ft 397 kts 249°
2026-05-05 16:47 28.42201 109.09108 37854 ft 396 kts 248°
2026-05-05 16:48 28.39720 109.03529 37866 ft 396 kts 248°
2026-05-05 16:48 28.37245 108.97949 37864 ft 396 kts 248°
2026-05-05 16:49 28.34762 108.92371 37860 ft 395 kts 248°
2026-05-05 16:49 28.32299 108.86846 37868 ft 395 kts 248°
2026-05-05 16:50 28.29816 108.81276 37860 ft 396 kts 248°
2026-05-05 16:50 28.27327 108.75706 37863 ft 396 kts 248°
2026-05-05 16:51 28.24834 108.70132 37862 ft 396 kts 248°
2026-05-05 16:51 28.22336 108.64558 37857 ft 396 kts 248°
2026-05-05 16:52 28.19839 108.58989 37860 ft 396 kts 248°
2026-05-05 16:52 28.17338 108.53425 37862 ft 396 kts 248°
2026-05-05 16:53 28.14838 108.47864 37865 ft 395 kts 248°
2026-05-05 16:53 28.12341 108.42320 37868 ft 395 kts 248°
2026-05-05 16:54 28.09860 108.36817 37864 ft 395 kts 248°
2026-05-05 16:54 28.07354 108.31269 37863 ft 396 kts 248°
2026-05-05 16:55 28.04851 108.25737 37863 ft 395 kts 248°
2026-05-05 16:55 28.02347 108.20203 37864 ft 395 kts 248°
2026-05-05 16:56 27.99826 108.14653 37866 ft 397 kts 248°
2026-05-05 16:56 27.97311 108.09101 37858 ft 396 kts 248°
2026-05-05 16:57 27.94789 108.03561 37867 ft 396 kts 248°
2026-05-05 16:57 27.92269 107.98028 37861 ft 395 kts 248°
2026-05-05 16:58 27.89749 107.92500 37861 ft 395 kts 248°
2026-05-05 16:58 27.87246 107.87016 37863 ft 395 kts 248°
2026-05-05 16:59 27.84726 107.81504 37865 ft 394 kts 248°
2026-05-05 16:59 27.82209 107.76001 37865 ft 394 kts 248°
2026-05-05 17:00 27.79758 107.70456 37863 ft 394 kts 249°
2026-05-05 17:00 27.77286 107.64930 37867 ft 394 kts 248°
2026-05-05 17:01 27.74822 107.59412 37868 ft 394 kts 249°
2026-05-05 17:01 27.72368 107.53928 37875 ft 393 kts 248°
2026-05-05 17:02 27.69899 107.48417 37875 ft 393 kts 248°
2026-05-05 17:02 27.67433 107.42922 37874 ft 393 kts 249°
2026-05-05 17:03 27.64964 107.37426 37867 ft 392 kts 249°
2026-05-05 17:03 27.62496 107.31939 37868 ft 392 kts 249°
2026-05-05 17:04 27.60024 107.26451 37875 ft 392 kts 248°
2026-05-05 17:04 27.57550 107.20964 37870 ft 393 kts 249°
2026-05-05 17:05 27.55074 107.15476 37870 ft 393 kts 248°
2026-05-05 17:05 27.52597 107.09991 37873 ft 392 kts 248°
2026-05-05 17:06 27.50122 107.04517 37871 ft 392 kts 248°
2026-05-05 17:06 27.47662 106.99082 37869 ft 392 kts 248°
2026-05-05 17:07 27.45210 106.93601 37866 ft 392 kts 249°
2026-05-05 17:07 27.42767 106.88121 37868 ft 392 kts 249°
2026-05-05 17:08 27.40314 106.82647 37873 ft 391 kts 249°
2026-05-05 17:08 27.37867 106.77182 37866 ft 391 kts 249°
2026-05-05 17:09 27.35412 106.71720 37881 ft 390 kts 248°
2026-05-05 17:09 27.32951 106.66282 37870 ft 390 kts 248°
2026-05-05 17:10 27.30502 106.60857 37879 ft 389 kts 248°
2026-05-05 17:10 27.28056 106.55460 37877 ft 386 kts 248°
2026-05-05 17:11 27.25634 106.50115 37873 ft 386 kts 248°
2026-05-05 17:11 27.23192 106.44732 37866 ft 387 kts 248°
2026-05-05 17:12 27.20742 106.39345 37870 ft 387 kts 248°
2026-05-05 17:12 27.18299 106.33970 37875 ft 387 kts 248°
2026-05-05 17:13 27.15843 106.28571 37871 ft 388 kts 248°
2026-05-05 17:13 27.13385 106.23177 37880 ft 388 kts 248°
2026-05-05 17:14 27.10927 106.17788 37876 ft 388 kts 248°
2026-05-05 17:14 27.08465 106.12395 37869 ft 388 kts 248°
2026-05-05 17:15 27.06013 106.07033 37882 ft 389 kts 248°
2026-05-05 17:15 27.03617 106.01613 37867 ft 386 kts 252°
2026-05-05 17:16 27.01451 105.96098 37874 ft 386 kts 251°
2026-05-05 17:16 26.99274 105.90589 37869 ft 386 kts 251°
2026-05-05 17:17 26.97098 105.85073 37855 ft 387 kts 251°
2026-05-05 17:17 26.94918 105.79564 37863 ft 386 kts 251°
2026-05-05 17:18 26.92738 105.74053 37862 ft 387 kts 251°
2026-05-05 17:18 26.90554 105.68545 37859 ft 387 kts 251°
2026-05-05 17:19 26.88366 105.63039 37864 ft 387 kts 251°
2026-05-05 17:19 26.86177 105.57531 37861 ft 390 kts 251°
2026-05-05 17:20 26.83967 105.51986 37849 ft 389 kts 251°
2026-05-05 17:20 26.81761 105.46452 37848 ft 389 kts 251°
2026-05-05 17:21 26.79552 105.40918 37845 ft 389 kts 251°
2026-05-05 17:22 26.76234 105.32622 37848 ft 388 kts 251°
2026-05-05 17:22 26.74404 105.28051 37846 ft 387 kts 251°
2026-05-05 17:23 26.71841 105.21661 37844 ft 387 kts 251°
2026-05-05 17:23 26.69992 105.17060 37843 ft 388 kts 251°
2026-05-05 17:24 26.67782 105.11563 37836 ft 387 kts 251°
2026-05-05 17:24 26.65566 105.06061 37838 ft 388 kts 251°
2026-05-05 17:25 26.63529 105.00532 37842 ft 386 kts 255°
2026-05-05 17:25 26.61659 104.94896 37838 ft 387 kts 254°
2026-05-05 17:26 26.59800 104.89263 37845 ft 386 kts 254°
2026-05-05 17:26 26.57939 104.83634 37848 ft 386 kts 254°
2026-05-05 17:27 26.56074 104.78007 37857 ft 385 kts 254°
2026-05-05 17:27 26.54211 104.72384 37861 ft 386 kts 254°
2026-05-05 17:28 26.52349 104.66792 37865 ft 387 kts 253°
2026-05-05 17:28 26.50474 104.61149 37870 ft 387 kts 253°
2026-05-05 17:29 26.48600 104.55535 37891 ft 386 kts 253°
2026-05-05 17:29 26.46723 104.49908 37890 ft 386 kts 253°
2026-05-05 17:30 26.44842 104.44283 37906 ft 387 kts 253°
2026-05-05 17:30 26.42956 104.38652 37908 ft 387 kts 253°
2026-05-05 17:31 26.41068 104.33023 37919 ft 387 kts 253°
2026-05-05 17:31 26.39194 104.27438 37793 ft 384 kts 253°
2026-05-05 17:31 26.38266 104.24682 37321 ft 376 kts 253°
2026-05-05 17:32 26.37354 104.21974 36843 ft 370 kts 253°
2026-05-05 17:32 26.36455 104.19302 36374 ft 365 kts 253°
2026-05-05 17:32 26.35568 104.16663 35902 ft 362 kts 252°
2026-05-05 17:32 26.34685 104.14046 35436 ft 359 kts 252°
2026-05-05 17:33 26.33808 104.11448 34978 ft 357 kts 252°
2026-05-05 17:33 26.32935 104.08859 34517 ft 356 kts 252°
2026-05-05 17:33 26.32063 104.06274 34051 ft 356 kts 251°
2026-05-05 17:33 26.31189 104.03692 33564 ft 355 kts 251°
2026-05-05 17:34 26.30317 104.01120 33093 ft 354 kts 251°
2026-05-05 17:34 26.29451 103.98559 32634 ft 353 kts 251°
2026-05-05 17:34 26.28587 103.96006 32174 ft 352 kts 251°
2026-05-05 17:34 26.27723 103.93456 31716 ft 352 kts 251°
2026-05-05 17:35 26.26857 103.90907 31257 ft 351 kts 251°
2026-05-05 17:35 26.25990 103.88353 30795 ft 351 kts 250°
2026-05-05 17:35 26.25139 103.85842 30345 ft 351 kts 250°
2026-05-05 17:35 26.24274 103.83300 29854 ft 351 kts 250°
2026-05-05 17:36 26.23409 103.80759 29386 ft 350 kts 250°
2026-05-05 17:36 26.22550 103.78233 28928 ft 348 kts 250°
2026-05-05 17:36 26.21695 103.75723 28472 ft 346 kts 250°
2026-05-05 17:36 26.20844 103.73224 28024 ft 345 kts 250°
2026-05-05 17:37 26.19989 103.70738 27618 ft 342 kts 250°
2026-05-05 17:37 26.19146 103.68267 27179 ft 341 kts 250°
2026-05-05 17:37 26.18030 103.65945 26740 ft 344 kts 234°
2026-05-05 17:37 26.16315 103.64081 26285 ft 349 kts 218°
2026-05-05 17:38 26.14195 103.62752 25837 ft 351 kts 211°
2026-05-05 17:38 26.12022 103.61510 25375 ft 351 kts 210°
2026-05-05 17:38 26.09838 103.60291 24916 ft 351 kts 210°
2026-05-05 17:38 26.07667 103.59053 24457 ft 350 kts 211°
2026-05-05 17:39 26.05512 103.57808 24001 ft 345 kts 211°
2026-05-05 17:39 26.03405 103.56605 23540 ft 336 kts 211°
2026-05-05 17:39 26.01351 103.55436 23067 ft 328 kts 211°
2026-05-05 17:39 25.99348 103.54294 22637 ft 319 kts 211°
2026-05-05 17:40 25.97421 103.53191 22235 ft 312 kts 211°
2026-05-05 17:40 25.95502 103.52097 21821 ft 307 kts 211°
2026-05-05 17:40 25.93617 103.51021 21424 ft 302 kts 211°
2026-05-05 17:40 25.91759 103.49959 21026 ft 299 kts 211°
2026-05-05 17:41 25.89918 103.48911 20635 ft 296 kts 211°
2026-05-05 17:41 25.88099 103.47874 20258 ft 293 kts 211°
2026-05-05 17:41 25.86289 103.46843 19866 ft 292 kts 211°
2026-05-05 17:41 25.84492 103.45818 19488 ft 288 kts 211°
2026-05-05 17:42 25.82714 103.44809 19114 ft 286 kts 211°
2026-05-05 17:42 25.80947 103.43804 18744 ft 284 kts 211°
2026-05-05 17:42 25.79192 103.42802 18369 ft 284 kts 211°
2026-05-05 17:42 25.77440 103.41808 17961 ft 281 kts 211°
2026-05-05 17:43 25.75713 103.40826 17578 ft 276 kts 212°
2026-05-05 17:43 25.73992 103.39847 17090 ft 279 kts 212°
2026-05-05 17:43 25.72271 103.38869 16700 ft 276 kts 212°
2026-05-05 17:43 25.70574 103.37910 16339 ft 269 kts 212°
2026-05-05 17:44 25.68935 103.36978 15996 ft 261 kts 213°
2026-05-05 17:44 25.67352 103.36080 15655 ft 256 kts 212°
2026-05-05 17:44 25.65781 103.35188 15322 ft 251 kts 213°
2026-05-05 17:44 25.64238 103.34313 15002 ft 247 kts 213°
2026-05-05 17:45 25.62699 103.33436 14674 ft 250 kts 213°
2026-05-05 17:45 25.61140 103.32551 14339 ft 252 kts 213°
2026-05-05 17:45 25.59589 103.31675 14014 ft 248 kts 213°
2026-05-05 17:45 25.58063 103.30812 13656 ft 245 kts 213°
2026-05-05 17:46 25.56555 103.29958 13338 ft 242 kts 213°
2026-05-05 17:46 25.55060 103.29107 13013 ft 242 kts 213°
2026-05-05 17:46 25.53554 103.28254 12698 ft 244 kts 213°
2026-05-05 17:46 25.52048 103.27404 12379 ft 241 kts 213°
2026-05-05 17:47 25.50570 103.26571 12060 ft 235 kts 213°
2026-05-05 17:47 25.49125 103.25746 11809 ft 231 kts 215°
2026-05-05 17:47 25.47892 103.24701 11757 ft 221 kts 226°
2026-05-05 17:47 25.46720 103.23645 11744 ft 218 kts 224°
2026-05-05 17:48 25.45546 103.22597 11757 ft 216 kts 224°
2026-05-05 17:48 25.44373 103.21537 11765 ft 219 kts 224°
2026-05-05 17:48 25.43176 103.20463 11759 ft 224 kts 225°
2026-05-05 17:48 25.41957 103.19365 11764 ft 228 kts 224°
2026-05-05 17:49 25.40701 103.18263 11744 ft 233 kts 222°
2026-05-05 17:49 25.39432 103.17171 11628 ft 226 kts 223°
2026-05-05 17:49 25.38249 103.16156 11478 ft 200 kts 224°
2026-05-05 17:49 25.37239 103.15280 11347 ft 171 kts 225°
2026-05-05 17:50 25.36413 103.14565 11196 ft 131 kts 225°
2026-05-05 17:50 25.35755 103.13997 11051 ft 110 kts 224°
2026-05-05 17:50 25.35157 103.13511 10953 ft 105 kts 227°
2026-05-05 17:50 25.34553 103.12978 10883 ft 116 kts 227°
2026-05-05 17:51 25.33918 103.12423 10814 ft 117 kts 225°
2026-05-05 17:51 25.33309 103.11895 10792 ft 111 kts 227°
2026-05-05 17:51 25.32674 103.11333 10804 ft 123 kts 227°
2026-05-05 17:51 25.31986 103.10734 10804 ft 128 kts 225°
2026-05-05 17:52 25.31286 103.10117 10811 ft 129 kts 227°
2026-05-05 17:52 25.30581 103.09497 10822 ft 130 kts 226°
2026-05-05 17:52 25.29907 103.08922 10792 ft 113 kts 226°
2026-05-05 17:52 25.29335 103.08424 10790 ft 99 kts 228°
2026-05-05 17:53 25.28790 103.07944 10795 ft 107 kts 227°
2026-05-05 17:53 25.28151 103.07373 10714 ft 127 kts 226°
2026-05-05 17:53 25.27478 103.06784 10577 ft 119 kts 227°
2026-05-05 17:53 25.26833 103.06220 10423 ft 117 kts 227°
2026-05-05 17:54 25.26209 103.05675 10282 ft 113 kts 227°
2026-05-05 17:54 25.25592 103.05133 10143 ft 113 kts 227°
2026-05-05 17:54 25.24982 103.04600 10004 ft 111 kts 227°
2026-05-05 17:54 25.24379 103.04075 9862 ft 109 kts 226°
2026-05-05 17:55 25.23778 103.03544 9710 ft 112 kts 226°
2026-05-05 17:55 25.23159 103.03006 9549 ft 113 kts 225°
2026-05-05 17:55 25.22551 103.02471 9418 ft 113 kts 226°
2026-05-05 17:55 25.21954 103.01946 9268 ft 109 kts 227°
2026-05-05 17:56 25.21330 103.01412 9123 ft 117 kts 225°
2026-05-05 17:56 25.20688 103.00848 8945 ft 116 kts 224°
2026-05-05 17:56 25.20075 103.00310 8814 ft 110 kts 225°
2026-05-05 17:56 25.19483 102.99794 8698 ft 110 kts 225°
2026-05-05 17:57 25.18849 102.99234 8533 ft 120 kts 224°
2026-05-05 17:57 25.18209 102.98685 8382 ft 116 kts 224°
2026-05-05 17:57 25.17584 102.98135 8148 ft 114 kts 224°
2026-05-05 17:57 25.16998 102.97620 8075 ft 107 kts 223°
2026-05-05 17:58 25.16386 102.97084 7915 ft 116 kts 222°
2026-05-05 17:58 25.15741 102.96521 7731 ft 118 kts 220°
2026-05-05 17:58 25.15112 102.95966 7544 ft 114 kts 218°
2026-05-05 17:58 25.14511 102.95448 7386 ft 106 kts 217°
2026-05-05 17:59 25.13935 102.94942 7249 ft 111 kts 220°
2026-05-05 17:59 25.13313 102.94397 7086 ft 116 kts 218°
2026-05-05 17:59 25.12696 102.93834 6907 ft 107 kts 217°
2026-05-05 17:59 25.12192 102.93405 6890 ft 66 kts 219°
2026-05-05 18:00 25.11943 102.93186 6889 ft 40 kts 218°
2026-05-05 18:00 25.11782 102.93045 6890 ft 27 kts 218°
2026-05-05 18:00 25.11642 102.92929 6892 ft 24 kts 211°
2026-05-05 18:00 25.11523 102.92821 6891 ft 22 kts 218°
2026-05-05 18:01 25.11405 102.92722 6891 ft 20 kts 216°
2026-05-05 18:01 25.11286 102.92647 6890 ft 19 kts 200°
2026-05-05 18:01 25.11162 102.92609 6890 ft 18 kts 193°
2026-05-05 18:01 25.11048 102.92579 6891 ft 16 kts 193°
2026-05-05 18:02 25.10943 102.92543 6891 ft 15 kts 208°
2026-05-05 18:02 25.10860 102.92478 6890 ft 14 kts 217°
2026-05-05 18:02 25.10786 102.92414 6891 ft 13 kts 219°
2026-05-05 18:02 25.10718 102.92353 6891 ft 12 kts 219°
2026-05-05 18:03 25.10652 102.92294 6891 ft 12 kts 218°
2026-05-05 18:03 25.10589 102.92239 6891 ft 11 kts 218°
2026-05-05 18:03 25.10528 102.92190 6891 ft 11 kts 215°
2026-05-05 18:03 25.10467 102.92144 6891 ft 10 kts 207°
2026-05-05 18:04 25.10403 102.92165 6891 ft 10 kts 143°
2026-05-05 18:04 25.10338 102.92162 6891 ft 10 kts 214°
2026-05-05 18:04 25.10289 102.92123 6891 ft 8 kts 210°
2026-05-05 18:04 25.10239 102.92131 6891 ft 8 kts 137°
2026-05-05 18:05 25.10203 102.92178 6891 ft 8 kts 127°
2026-05-05 18:05 25.10166 102.92229 6890 ft 9 kts 129°
2026-05-05 18:05 25.10136 102.92266 6890 ft 5 kts 142°
2026-05-05 18:05 25.10103 102.92271 6890 ft 5 kts 201°
2026-05-05 18:06 25.10075 102.92249 6890 ft 5 kts 218°
2026-05-05 18:06 25.10066 102.92241 6890 ft 5 kts 218°
2026-05-05 18:06 25.10046 102.92225 6890 ft 0 kts 217°